Regional Weather Roundup
Issued by NWS Portland, ME

Home | Current Version | Previous Version | Text Only | Print | Product List | Glossary On
Versions: 1 2 3 4 5 6 7 8 9 10 11 12 13 14 15 16 17 18 19 20 21 22 23 24 25 26 27 28 29 30 31 32 33 34 35 36 37 38 39 40 41 42 43 44 45 46 47 48 49 50
000
ASUS41 KGYX 231010
RWRGYX
WEATHER ROUNDUP FOR MAINE AND NEW HAMPSHIRE
NATIONAL WEATHER SERVICE GRAY ME
600 AM EDT THU OCT 23 2014

MEZ002-005-006-010-012-015-018-020-021-024-026-027-029-231100-
MAINE

CITY           SKY/WX    TMP DP  RH WIND       PRES   REMARKS
PORTLAND       CLOUDY    50  46  86 N18G28    29.82F
SANFORD        CLOUDY    46  41  81 N23       29.79F
BAR HARBOR     CLOUDY    50  48  93 NE16G24   29.91F
WISCASSET      LGT RAIN  49  47  93 NE12G22   29.87F
ROCKLAND       CLOUDY    50  48  93 NE20G29   29.85F
FRYEBURG       LGT RAIN  47  45  93 N9        29.91F
LEWISTONAUBURN CLOUDY    46  43  87 NE20G26   29.89S
AUGUSTA        LGT RAIN  45  44  97 N17G30    29.92F
WATERVILLE     CLOUDY    46  39  76 N16G23    29.92S
BANGOR         LGT RAIN  48  46  93 NE16G26   29.97F
GREENVILLE       N/A     43  39  86 NE14G20   30.02F
MILLINOCKET    LGT RAIN  44  42  93 NE12G17   30.10S
HOULTON        LGT RAIN  45  42  89 NE9       30.13S
PRESQUE ISLE   CLOUDY    43  36  75 N13       30.18F
FRENCHVILLE    CLOUDY    39  34  82 NE14G21   30.22F
CARIBOU        CLOUDY    43  37  79 NE9       30.20F
$$

NHZ002-005-008-009-011-012-014-231100-
NEW HAMPSHIRE

CITY           SKY/WX    TMP DP  RH WIND       PRES   REMARKS
PORTSMOUTH     LGT RAIN  49  47  91 N21G29    29.73F FOG
ROCHESTER      CLOUDY    49  45  86 NE17G29   29.78S
NASHUA         LGT RAIN  48  48 100 N8        29.77S FOG
MANCHESTER     LGT RAIN  50  45  83 N17G30    29.75S
CONCORD        LGT RAIN  47  46  97 NE18G28   29.79F
LACONIA        CLOUDY    48  43  81 NE16G23   29.83F
PLYMOUTH       CLOUDY    49  49 100 CALM      29.85F
BERLIN         LGT RAIN  45  43  93 N6        29.96F
WHITEFIELD     CLOUDY    47  42  83 E7        29.93F
JAFFREY        RAIN      46  44  93 VRB5      29.79R FOG
LEBANON        LGT RAIN  49  45  86 N10       29.86F
MT WASHINGTON  LGTSLEET  32  32 100 E62G68      N/A  VSB 1/16WCI  13
$$

VTZ005-007-008-231100-
VERMONT

CITY           SKY/WX    TMP DP  RH WIND       PRES   REMARKS
ST JOHNSBURY     N/A     47  42  83 MISG      29.93F
MONTPELIER     LGT RAIN  43  39  86 N6        29.98F
BURLINGTON     CLOUDY    45  36  70 N16G23    30.00S
$$

MAZ007-012-024-CTZ003-RIZ002-NYZ038-NYZ072-231100-
SOUTHERN NEW ENGLAND AND NY

CITY           SKY/WX    TMP DP  RH WIND       PRES   REMARKS
BOSTON         HVY RAIN  51  50  96 N29G41    29.67F FOG
WORCESTER      RAIN      45  44  97 N23G33    29.70S FOG
NANTUCKET      MOCLDY    57  55  93 E5        29.53R
PROVIDENCE     LGT RAIN  51  48  89 N24G35    29.58F
HARTFORD       LGT RAIN  50  46  86 N22       29.70S
ALBANY         RAIN      47  43  86 N12       29.87R FOG
NEW YORK CITY  CLOUDY    52  47  83 N12G22    29.70R
$$

ANZ081-ANZ082-ANZ150-NHZ014-MEZ023>029-231100-
COASTAL MARINE OBSERVATIONS

STATION/POSITION TIME  TEMP    WIND        PRES    WAVE
                       AIR SEA DIR/SP/G            HT/PER
                 (UTC) (F)     (DEG/KT/KT) (MB)    (FT/S)
MOUNT DESERT ROC 1000   54                 1009.2R
MATINICUS ROCK   1000           50/ 41/ 48 1007.7F
PORTLAND WX BUOY 0950   51 54   30/ 27/ 33 1008.1F   9/ 9
WELLS            0900   48 49   30/ 19/ 26 1007.6F
ISLE OF SHOALS   1000   50      30/ 43/ 48 1004.1F
JEFFREYS LEDGE   0921      55                N/A    16/10
CASHES LEDGE BUO 0950   55 55   50/ 33/ 39 1004.0F  18/ 9
$$

.............KEY..............
   WCI - WIND CHILL
   TC  - TEMPERATURE IN CELSIUS
   VSB - VISIBILITY IN MILES
   HX  - HEAT INDEX
   FAIR- INDICATES FEW OR NO CLOUDS BELOW 12,000 FT, WITH NO
         SIGNIFICANT WEATHER AND/OR OBSTRUCTIONS TO VISIBILITY.





USA.gov is the U.S. government's official web portal to all federal, state and local government web resources and services.